Location: Chantarel
(45.1638°N, 1.7873°E)
Time: 06:21:28
(UTC+00:00)

Lacrosse 4 Rocket - Pass Details

Date: 03 March 2021
Orbit: 537 x 620 km, 68.0° (Epoch: 10 April)

Event Time Altitude Azimuth Distance (km) Brightness Sun altitude
Rises 19:09:31 0° 181° (S) 2,811 4.9 -16.0°
Reaches altitude 10° 19:11:56 10° 169° (S) 1,929 3.9 -16.4°
Enters shadow 19:14:33 25° 137° (SE) 1,223 2.6 -16.9°
